Regional Weather Roundup
Issued by NWS

Home | Current Version | Previous Version | Graphics & Text | Print | Product List | Glossary Off
Versions: 1 2 3 4 5 6 7 8 9 10 11 12 13 14 15 16 17 18 19 20 21 22 23 24 25 26 27 28 29 30 31 32 33 34 35 36 37 38 39 40 41 42 43 44 45 46 47 48 49 50

000
ASUS43 KDTX 271810
RWRMI
MICHIGAN HOURLY REGIONAL WEATHER ROUNDUP
NATIONAL WEATHER SERVICE DETROIT/PONTIAC MI
200 PM EDT MON MAR 27 2017

NOTE: "FAIR" INDICATES FEW OR NO CLOUDS BELOW 12,000 FEET WITH NO
SIGNIFICANT WEATHER AND/OR OBSTRUCTION TO VISIBILITY.

MIZ047>049-052>055-059>063-066>070-074>076-081>083-271900-
SOUTHEAST LOWER MICHIGAN

CITY           SKY/WX    TMP DP  RH WIND       PRES   REMARKS
ADRIAN         CLOUDY    57  49  74 VRB5      29.93F
6HR MIN TEMP:  50; 6HR MAX TEMP:  57;

ALMA           CLOUDY    48  44  87 W6        29.92F
ANN ARBOR      PTSUNNY   58  49  72 MISG      29.91F
BAD AXE        CLOUDY    48  48 100 W10       29.90S FOG
6HR MIN TEMP:  48; 6HR MAX TEMP:  51;

CARO           CLOUDY    50  47  88 SW10      29.90S
DETROIT CITY   CLOUDY    60  50  69 SW12      29.91F
6HR MIN TEMP:  49; 6HR MAX TEMP:  60;

DETROIT        CLOUDY    60  50  69 SW8       29.92F
6HR MIN TEMP:  52; 6HR MAX TEMP:  60;

FLINT          CLOUDY    52  47  83 W9        29.92S
6HR MIN TEMP:  50; 6HR MAX TEMP:  53;

GROSSE ILE     CLOUDY    59  49  71 SW6       29.91F
6HR MIN TEMP:  44; 6HR MAX TEMP:  59;

HILLSDALE      CLOUDY    54  46  76 NW3       29.92F
HOWELL         CLOUDY    53  48  83 W9        29.91F
6HR MIN TEMP:  51; 6HR MAX TEMP:  54;


CITY           SKY/WX    TMP DP  RH WIND       PRES   REMARKS
JACKSON        CLOUDY    56  49  77 W8        29.91F
6HR MIN TEMP:  51; 6HR MAX TEMP:  57; 6HR PCP:  0.01;

LAMBERTVILLE   CLOUDY    60  50  69 NW6       29.92F
6HR MIN TEMP:  53; 6HR MAX TEMP:  60;

LANSING        CLOUDY    53  45  74 W9        29.92F
6HR MIN TEMP:  48; 6HR MAX TEMP:  53;

LAPEER         CLOUDY    52  50  93 W8        29.91S FOG
6HR MIN TEMP:  52; 6HR MAX TEMP:  55;

MASON          CLOUDY    55  50  83 W5        29.92F
MONROE         CLOUDY    58  51  78 W7        29.91F
6HR MIN TEMP:  51; 6HR MAX TEMP:  58;

MT. CLEMENS    CLOUDY    58  53  82 SW10      29.90F
6HR MIN TEMP:  50; 6HR MAX TEMP:  60;

PONTIAC        CLOUDY    54  48  80 W9        29.90F
6HR MIN TEMP:  51; 6HR MAX TEMP:  56; 6HR PCP: TRACE;

PORT HOPE        N/A     49  46  90 W13       29.88R
6HR MIN TEMP:  38; 6HR MAX TEMP:  52;

PORT HURON     CLOUDY    57  50  77 SW5       29.91S
TRI CITIES     CLOUDY    48  45  89 SW13      29.92S
6HR MIN TEMP:  48; 6HR MAX TEMP:  50;

MIDLAND        CLOUDY    48  42  79 SW9       29.91S
6HR MIN TEMP:  46; 6HR MAX TEMP:  49;

TROY           CLOUDY    58  49  70 W8        29.93F
SAGINAW HB     CLOUDY    50  43  76 W10       29.91S
$$
MIZ043>046-050>051-056>058-064>065-071>073-077>080-271900-
SOUTHWEST LOWER MICHIGAN

CITY           SKY/WX    TMP DP  RH WIND       PRES   REMARKS
BATTLE CREEK   CLOUDY    53  49  86 W9        29.93F
6HR MIN TEMP:  49; 6HR MAX TEMP:  53;

BENTON HARBOR  CLOUDY    50  45  83 SW6       29.95F
6HR MIN TEMP:  42; 6HR MAX TEMP:  51;

BIG RAPIDS     CLOUDY    42  39  88 W5        29.91F
COLDWATER      CLOUDY    57  50  78 W8        29.93F
6HR MIN TEMP:  49; 6HR MAX TEMP:  57;

FREMONT        CLOUDY    44  40  85 NW3       29.93F
HOLLAND        CLOUDY    47  41  80 W5        29.95F
6HR MIN TEMP:  41; 6HR MAX TEMP:  47;

GRAND RAPIDS   CLOUDY    49  43  80 W8        29.92F
6HR MIN TEMP:  42; 6HR MAX TEMP:  50;

IONIA          FAIR      50  42  74 NW5       29.91F
6HR MIN TEMP:  43; 6HR MAX TEMP:  50;

KALAMAZOO      CLOUDY    52  47  83 SW3       29.93F
6HR MIN TEMP:  48; 6HR MAX TEMP:  53;

LUDINGTON      CLOUDY    40  38  92 W6        29.95S
6HR MIN TEMP:  37; 6HR MAX TEMP:  40;

MARSHALL       CLOUDY    55  50  84 W8        29.92F
6HR MIN TEMP:  50; 6HR MAX TEMP:  55;

MOUNT PLEASANT CLOUDY    46  42  88 W7        29.91F
6HR MIN TEMP:  43; 6HR MAX TEMP:  46;

MUSKEGON       CLOUDY    46  40  79 W5        29.94F
6HR MIN TEMP:  39; 6HR MAX TEMP:  46;

SOUTH HAVEN    CLOUDY    47  42  84 NW5       29.94F
$$
MIZ016>042-271900-
NORTHERN LOWER MICHIGAN

CITY           SKY/WX    TMP DP  RH WIND       PRES   REMARKS
ALPENA         CLOUDY    41  40  96 W5        29.91R
6HR MIN TEMP:  39; 6HR MAX TEMP:  43;

BEAVER ISLAND  CLOUDY    38  35  91 CALM      29.94R
6HR MIN TEMP:  34; 6HR MAX TEMP:  39;

BELLAIRE       CLOUDY    38  37  94 SW3       29.94S
6HR MIN TEMP:  34; 6HR MAX TEMP:  38;

CADILLAC       CLOUDY    40  39  94 W3        29.91F
CHARLEVOIX     CLOUDY    36  36 100 NW7       29.97R WCI  31
6HR MIN TEMP:  34; 6HR MAX TEMP:  37;

FRANKFORT      CLOUDY    40  36  86 NW5       29.94F
GAYLORD        CLOUDY    38  34  85 W5        29.89S WCI  34
6HR MIN TEMP:  36; 6HR MAX TEMP:  42;

GRAYLING       CLOUDY    37  37 100 W5        29.91F FOG     WCI  34
HARBOR SPRINGS CLOUDY    34  34 100 SW3       29.92S
HOUGHTON LAKE  CLOUDY    40  38  93 W7        29.90F
6HR MIN TEMP:  39; 6HR MAX TEMP:  42;

MANISTEE       CLOUDY    40  37  89 NW8       29.94F WCI  34
OSCODA         DRIZZLE   46  44  92 NE6       29.88S
6HR MIN TEMP:  42; 6HR MAX TEMP:  49;

PELLSTON       CLOUDY    39  34  82 W5        29.92S
6HR MIN TEMP:  35; 6HR MAX TEMP:  40; 6HR PCP: TRACE;

ROGERS CITY    CLOUDY    40  36  87 W3        29.91S
TRAVERSE CITY  CLOUDY    39  36  89 CALM      29.93S
6HR MIN TEMP:  37; 6HR MAX TEMP:  40; 6HR PCP: TRACE;

$$
MIZ007>008-015-271900-
EASTERN UPPER MICHIGAN

CITY           SKY/WX    TMP DP  RH WIND       PRES   REMARKS
KINROSS        CLOUDY    38  36  92 NW12      29.89F WCI  30
6HR MIN TEMP:  33; 6HR MAX TEMP:  39; 6HR PCP: TRACE;

MACKINAC ISLAN CLOUDY    37  37 100 SW5       29.91S WCI  33
6HR MIN TEMP:  32; 6HR MAX TEMP:  38;

NEWBERRY       CLOUDY    35  35  96 N7        29.91S WCI  30
6HR MIN TEMP:  32; 6HR MAX TEMP:  36;

S. S. MARIE    CLOUDY    38  35  89 NW7       29.88S WCI  33
6HR MIN TEMP:  35; 6HR MAX TEMP:  38; 6HR PCP:  0.02;

MUNISING         N/A     34  33  96 NW12      29.95R WCI  25
6HR MIN TEMP:  34; 6HR MAX TEMP:  35; 6HR PCP:  0.02;

$$
MIZ004>006-011>014-085-271900-
CENTRAL UPPER MICHIGAN

CITY           SKY/WX    TMP DP  RH WIND       PRES   REMARKS
MANISTIQUE     CLOUDY    37  37 100 NW7       29.94R WCI  32
ESCANABA       CLOUDY    40  35  83 NW6       29.96R
6HR MIN TEMP:  34; 6HR MAX TEMP:  40;

MENOMINEE        N/A    N/A N/A N/A MISG        N/A
SAWYER-GWINN   CLOUDY    36  34  93 N5        29.94R WCI  32
$$
MIZ001>003-009>011-084-271900-
WESTERN UPPER MICHIGAN

CITY           SKY/WX    TMP DP  RH WIND       PRES   REMARKS
IRON MOUNTAIN  CLOUDY    40  34  79 CALM      29.94R
6HR MIN TEMP:  34; 6HR MAX TEMP:  41;

HOUGHTON       CLOUDY    36  32  85 NW9       29.96R WCI  29
6HR MIN TEMP:  32; 6HR MAX TEMP:  36;

COPPER HARBOR    N/A     35  33  92 N14       29.96R WCI  26
6HR MIN TEMP:  33; 6HR MAX TEMP:  36;

IRONWOOD       CLOUDY    41  36  82 CALM      29.97S
6HR MIN TEMP:  32; 6HR MAX TEMP:  41;

$$

ABBREVIATIONS USED IN REMARKS
   TC - TEMPERATURE IN CELSIUS
  WCI - WIND CHILL INDEX
   HX - HEAT INDEX
  VSB - VISIBILITY





USA.gov is the U.S. government's official web portal to all federal, state and local government web resources and services.